contact:dominique.lefevre@mio.osupytheas.fr, maurice.libes@osupytheas.fr, didier.mallarino@osupytheas.fr
Project:EMSO http://www.emso-fr.org/EMSO-France
Depth: 2436.0 m
Title:EMSO Ligure Ouest : Data MII capteur AQUADOPP
Date,Latitude,Longitude,X_East,Y_North,Z_Up,Amplitude_X,Amplitude_Y,Amplitude_Z,Batterie,SoundSpeed,Heading,Pitch,Roll,Pressure,TIS,Speed,Direction
, degrees North, degrees East, m.s-1, m.s-1,m.s-1, 1, 1, 1, Volt, m.s-1, degree, degree, degree, dbar, degree_C, m.s-1, degree
2022-01-17T00:04:03,42.805,6.029,0.025,-0.021,0.005,102.0,101.0,101.0,13.4,1505.2,329.1,-0.8,1.8,2470.674,13.28,0.032,130.0
2022-01-17T00:07:03,42.805,6.029,0.02,-0.004,-0.019,101.0,102.0,100.0,13.4,1505.2,324.3,-0.8,1.8,2470.641,13.28,0.02,101.3
2022-01-17T00:10:03,42.805,6.029,0.013,-0.01,0.011,102.0,102.0,101.0,13.4,1505.2,328.0,-0.8,1.8,2470.649,13.28,0.016,127.6
2022-01-17T00:13:03,42.805,6.029,0.023,-0.016,-0.002,102.0,103.0,101.0,13.3,1505.2,328.7,-0.8,1.8,2470.596,13.28,0.028,124.8
2022-01-17T00:16:03,42.805,6.029,0.004,-0.026,-0.02,101.0,101.0,101.0,13.4,1505.2,329.9,-0.7,1.8,2470.625,13.28,0.026,171.3
2022-01-17T00:19:03,42.805,6.029,0.006,-0.005,-0.017,101.0,102.0,101.0,13.3,1505.2,324.2,-0.8,1.8,2470.592,13.28,0.007,129.8
2022-01-17T00:22:03,42.805,6.029,0.04,-0.024,-0.007,102.0,102.0,100.0,13.4,1505.2,323.3,-0.8,1.8,2470.608,13.28,0.046,121.0
2022-01-17T00:25:03,42.805,6.029,0.028,-0.026,-0.016,101.0,102.0,101.0,13.4,1505.2,324.5,-0.7,1.8,2470.533,13.28,0.038,132.9
2022-01-17T00:28:03,42.805,6.029,0.011,-0.001,-0.002,102.0,101.0,100.0,13.4,1505.2,324.4,-0.7,1.8,2470.589,13.28,0.011,95.2
2022-01-17T00:31:03,42.805,6.029,0.024,-0.019,-0.022,100.0,102.0,101.0,13.4,1505.2,328.1,-0.8,1.8,2470.592,13.28,0.03,128.4
2022-01-17T00:34:03,42.805,6.029,0.021,-0.014,-0.016,102.0,102.0,101.0,13.3,1505.2,328.7,-0.8,1.8,2470.574,13.28,0.025,123.7
2022-01-17T00:37:03,42.805,6.029,-0.003,0.003,0.002,101.0,102.0,100.0,13.4,1505.2,326.7,-0.7,1.8,2470.585,13.28,0.004,315.0
2022-01-17T00:40:03,42.805,6.029,0.001,-0.015,0.016,101.0,101.0,100.0,13.4,1505.2,326.4,-0.7,1.8,2470.6,13.28,0.015,176.2
2022-01-17T00:43:03,42.805,6.029,0.025,-0.015,-0.046,102.0,101.0,100.0,13.4,1505.2,326.1,-0.8,1.8,2470.574,13.28,0.029,121.0
2022-01-17T00:46:03,42.805,6.029,-0.001,-0.019,-0.009,102.0,101.0,100.0,13.3,1505.2,325.4,-0.8,1.8,2470.598,13.28,0.019,183.0
2022-01-17T00:49:03,42.805,6.029,0.007,-0.021,-0.019,101.0,101.0,100.0,13.4,1505.2,329.7,-0.8,1.9,2470.575,13.28,0.022,161.6
2022-01-17T00:52:03,42.805,6.029,0.034,-0.011,0.02,101.0,100.0,100.0,13.4,1505.2,328.6,-0.8,1.8,2470.594,13.28,0.035,107.9
2022-01-17T00:55:03,42.805,6.029,0.009,-0.015,-0.012,103.0,101.0,100.0,13.4,1505.2,326.3,-0.8,1.8,2470.573,13.28,0.017,149.0
2022-01-17T00:58:03,42.805,6.029,0.008,-0.011,-0.034,103.0,101.0,100.0,13.4,1505.2,329.0,-0.7,1.9,2470.573,13.28,0.013,144.0
2022-01-17T01:04:03,42.805,6.029,0.013,-0.008,0.009,102.0,103.0,102.0,13.3,1505.2,329.8,-0.8,1.8,2470.614,13.28,0.015,121.6
2022-01-17T01:07:03,42.805,6.029,0.002,-0.024,-0.045,103.0,103.0,101.0,13.4,1505.2,328.0,-0.7,1.8,2470.628,13.28,0.024,175.2
2022-01-17T01:10:02,42.805,6.029,-0.004,-0.01,0.002,100.0,102.0,101.0,13.4,1505.2,329.0,-0.7,1.8,2470.606,13.28,0.01,201.8
2022-01-17T01:13:03,42.805,6.029,0.012,-0.006,-0.032,101.0,102.0,100.0,13.4,1505.2,326.2,-0.8,1.9,2470.614,13.28,0.013,116.6
2022-01-17T01:16:03,42.805,6.029,0.026,-0.032,-0.047,102.0,101.0,100.0,13.4,1505.2,326.9,-0.8,1.8,2470.615,13.28,0.041,140.9
2022-01-17T01:19:03,42.805,6.029,0.013,-0.021,0.0,101.0,101.0,100.0,13.4,1505.2,329.6,-0.7,1.8,2470.588,13.28,0.024,148.2
2022-01-17T01:22:03,42.805,6.029,0.007,-0.013,0.005,102.0,101.0,101.0,13.4,1505.2,324.5,-0.7,1.8,2470.581,13.28,0.014,151.7
2022-01-17T01:25:03,42.805,6.029,0.03,-0.026,-0.027,101.0,101.0,101.0,13.4,1505.2,324.1,-0.8,1.8,2470.569,13.28,0.039,130.9
2022-01-17T01:28:03,42.805,6.029,0.009,-0.028,-0.016,102.0,101.0,100.0,13.4,1505.2,327.0,-0.8,1.8,2470.562,13.28,0.029,162.2
2022-01-17T01:31:03,42.805,6.029,-0.007,0.009,-0.024,101.0,102.0,100.0,13.4,1505.2,327.5,-0.8,1.8,2470.582,13.28,0.011,322.1
2022-01-17T01:34:03,42.805,6.029,0.038,-0.041,-0.032,101.0,101.0,100.0,13.4,1505.2,325.5,-0.8,1.8,2470.617,13.28,0.055,137.2
2022-01-17T01:37:03,42.805,6.029,0.049,-0.017,-0.041,101.0,104.0,99.0,13.4,1505.2,326.2,-0.8,1.9,2470.622,13.28,0.051,109.1
2022-01-17T01:40:03,42.805,6.029,0.024,-0.018,-0.006,101.0,101.0,101.0,13.4,1505.2,326.1,-0.8,1.8,2470.605,13.28,0.03,126.9
2022-01-17T01:43:03,42.805,6.029,0.025,-0.027,-0.004,102.0,102.0,100.0,13.4,1505.2,330.0,-0.8,1.8,2470.583,13.28,0.036,137.2
2022-01-17T01:46:03,42.805,6.029,0.005,-0.01,0.003,102.0,103.0,101.0,13.4,1505.2,330.7,-0.7,1.8,2470.613,13.28,0.011,153.4
2022-01-17T01:49:03,42.805,6.029,0.014,-0.013,0.003,101.0,101.0,101.0,13.3,1505.2,330.1,-0.7,1.8,2470.586,13.28,0.019,132.9
2022-01-17T01:52:03,42.805,6.029,0.024,-0.015,-0.017,101.0,103.0,100.0,13.4,1505.2,331.5,-0.8,1.8,2470.578,13.28,0.028,122.0
2022-01-17T01:55:03,42.805,6.029,0.029,-0.037,-0.03,101.0,101.0,100.0,13.4,1505.2,324.9,-0.8,1.8,2470.612,13.28,0.047,141.9
2022-01-17T01:58:03,42.805,6.029,0.013,-0.019,-0.017,101.0,101.0,100.0,13.3,1505.2,328.9,-0.8,1.8,2470.6,13.28,0.023,145.6
2022-01-17T02:04:03,42.805,6.029,0.037,-0.028,-0.017,102.0,101.0,100.0,13.4,1505.2,330.6,-0.7,1.8,2470.652,13.28,0.046,127.1
2022-01-17T02:07:03,42.805,6.029,0.028,-0.038,-0.024,102.0,101.0,100.0,13.3,1505.2,327.1,-0.8,1.8,2470.598,13.28,0.047,143.6
2022-01-17T02:10:03,42.805,6.029,0.018,0.005,-0.009,103.0,101.0,99.0,13.4,1505.2,324.9,-0.8,1.8,2470.602,13.28,0.018,74.5
2022-01-17T02:13:03,42.805,6.029,0.042,-0.023,0.002,102.0,101.0,100.0,13.3,1505.2,328.2,-0.7,1.8,2470.627,13.28,0.047,118.7
2022-01-17T02:16:03,42.805,6.029,0.024,-0.024,-0.019,102.0,103.0,101.0,13.3,1505.2,327.7,-0.7,1.8,2470.627,13.28,0.033,135.0
2022-01-17T02:19:03,42.805,6.029,0.02,-0.032,-0.038,101.0,102.0,100.0,13.3,1505.2,328.8,-0.7,1.8,2470.622,13.28,0.037,148.0
2022-01-17T02:22:03,42.805,6.029,0.04,-0.001,0.0,101.0,102.0,100.0,13.4,1505.2,327.8,-0.8,1.8,2470.62,13.28,0.04,91.4
2022-01-17T02:25:03,42.805,6.029,0.022,-0.013,0.02,101.0,102.0,100.0,13.4,1505.2,331.6,-0.8,1.8,2470.641,13.28,0.025,120.6
2022-01-17T02:28:03,42.805,6.029,0.019,-0.016,-0.034,101.0,102.0,100.0,13.3,1505.2,328.4,-0.7,1.8,2470.613,13.28,0.024,130.1
2022-01-17T02:31:03,42.805,6.029,0.029,-0.028,0.011,101.0,101.0,100.0,13.4,1505.2,329.6,-0.8,1.8,2470.575,13.28,0.04,134.0
2022-01-17T02:34:03,42.805,6.029,0.018,0.0,0.005,101.0,102.0,100.0,13.4,1505.2,330.6,-0.7,1.8,2470.589,13.28,0.018,90.0
2022-01-17T02:37:03,42.805,6.029,0.062,-0.016,0.006,101.0,102.0,101.0,13.4,1505.2,331.8,-0.8,1.8,2470.556,13.28,0.064,104.5
2022-01-17T02:40:03,42.805,6.029,0.032,-0.013,-0.017,101.0,101.0,100.0,13.4,1505.2,329.8,-0.8,1.8,2470.592,13.28,0.034,112.1
2022-01-17T02:43:03,42.805,6.029,0.016,-0.01,-0.006,101.0,100.0,101.0,13.4,1505.2,324.2,-0.8,1.8,2470.617,13.28,0.018,122.0
2022-01-17T02:46:03,42.805,6.029,0.037,-0.005,-0.002,102.0,102.0,101.0,13.4,1505.2,327.0,-0.8,1.9,2470.588,13.28,0.037,97.7
2022-01-17T02:49:03,42.805,6.029,0.015,-0.021,-0.009,101.0,102.0,100.0,13.3,1505.2,327.9,-0.7,1.8,2470.617,13.28,0.025,144.5
2022-01-17T02:52:03,42.805,6.029,0.019,-0.009,-0.011,101.0,101.0,101.0,13.3,1505.2,327.6,-0.8,1.8,2470.621,13.28,0.021,115.3
2022-01-17T02:55:03,42.805,6.029,0.029,-0.012,-0.042,102.0,101.0,100.0,13.4,1505.2,325.2,-0.8,1.8,2470.644,13.28,0.031,112.5
2022-01-17T02:58:03,42.805,6.029,0.057,-0.009,-0.006,101.0,100.0,101.0,13.4,1505.2,326.7,-0.8,1.9,2470.606,13.28,0.057,99.0
2022-01-17T03:04:03,42.805,6.029,0.033,-0.004,0.017,102.0,102.0,100.0,13.4,1505.2,323.7,-0.8,1.8,2470.654,13.28,0.033,96.9
2022-01-17T03:07:03,42.805,6.029,0.013,-0.024,-0.016,102.0,101.0,101.0,13.4,1505.2,328.3,-0.7,1.8,2470.649,13.28,0.027,151.6
2022-01-17T03:10:03,42.805,6.029,0.031,-0.022,0.009,102.0,102.0,100.0,13.4,1505.2,328.4,-0.8,1.8,2470.657,13.28,0.038,125.4
2022-01-17T03:13:03,42.805,6.029,0.066,-0.019,0.011,101.0,102.0,101.0,13.3,1505.2,329.1,-0.7,1.8,2470.65,13.28,0.068,106.1
2022-01-17T03:16:03,42.805,6.029,0.039,-0.034,-0.046,103.0,102.0,100.0,13.4,1505.2,327.7,-0.7,1.8,2470.655,13.28,0.051,131.1
2022-01-17T03:19:03,42.805,6.029,0.053,-0.02,0.003,101.0,103.0,100.0,13.4,1505.2,327.3,-0.8,1.8,2470.635,13.28,0.056,110.7
2022-01-17T03:22:03,42.805,6.029,0.051,-0.021,0.024,101.0,102.0,100.0,13.4,1505.2,329.1,-0.7,1.8,2470.66,13.28,0.055,112.4
2022-01-17T03:25:03,42.805,6.029,0.029,-0.018,-0.008,102.0,101.0,100.0,13.3,1505.2,324.4,-0.8,1.8,2470.633,13.28,0.034,121.8
2022-01-17T03:28:03,42.805,6.029,0.027,-0.035,-0.012,101.0,102.0,101.0,13.4,1505.2,330.0,-0.8,1.8,2470.658,13.28,0.044,142.3
2022-01-17T03:31:03,42.805,6.029,0.041,-0.027,-0.014,104.0,102.0,100.0,13.4,1505.2,325.8,-0.8,1.8,2470.673,13.28,0.049,123.4
2022-01-17T03:34:03,42.805,6.029,0.023,-0.028,-0.042,102.0,103.0,100.0,13.4,1505.2,328.7,-0.7,1.9,2470.635,13.28,0.036,140.6
2022-01-17T03:37:03,42.805,6.029,0.003,-0.007,-0.013,100.0,102.0,100.0,13.4,1505.2,328.8,-0.8,1.8,2470.7,13.28,0.007,156.8
2022-01-17T03:40:03,42.805,6.029,0.023,-0.01,-0.009,102.0,102.0,101.0,13.4,1505.2,328.0,-0.8,1.8,2470.655,13.28,0.025,113.5
2022-01-17T03:43:03,42.805,6.029,0.024,-0.022,-0.034,103.0,102.0,100.0,13.3,1505.2,327.9,-0.7,1.8,2470.687,13.28,0.032,132.5
2022-01-17T03:46:03,42.805,6.029,0.023,-0.007,0.01,102.0,101.0,100.0,13.3,1505.2,327.5,-0.8,1.8,2470.673,13.28,0.024,106.9
2022-01-17T03:49:03,42.805,6.029,0.025,-0.025,-0.011,101.0,100.0,101.0,13.3,1505.2,324.5,-0.8,1.8,2470.665,13.28,0.035,135.0
2022-01-17T03:52:03,42.805,6.029,0.03,-0.026,0.008,101.0,102.0,101.0,13.4,1505.2,324.5,-0.7,1.8,2470.694,13.28,0.039,130.9
2022-01-17T03:55:03,42.805,6.029,0.047,-0.014,-0.034,100.0,102.0,100.0,13.3,1505.2,325.1,-0.8,1.8,2470.671,13.28,0.049,106.6
2022-01-17T03:58:03,42.805,6.029,0.057,-0.039,-0.002,102.0,100.0,101.0,13.4,1505.2,327.3,-0.8,1.8,2470.676,13.28,0.069,124.4
2022-01-17T04:04:03,42.805,6.029,0.034,-0.022,0.013,102.0,101.0,101.0,13.4,1505.2,328.0,-0.8,1.8,2470.739,13.28,0.04,122.9
2022-01-17T04:07:03,42.805,6.029,0.062,-0.052,-0.025,102.0,102.0,101.0,13.4,1505.2,328.5,-0.8,1.8,2470.69,13.28,0.08,130.0
2022-01-17T04:10:03,42.805,6.029,0.042,-0.019,-0.005,102.0,102.0,101.0,13.4,1505.2,326.9,-0.7,1.8,2470.699,13.28,0.046,114.3
2022-01-17T04:13:03,42.805,6.029,0.03,-0.035,-0.024,101.0,102.0,101.0,13.4,1505.2,325.7,-0.7,1.8,2470.698,13.28,0.046,139.4
2022-01-17T04:16:03,42.805,6.029,0.035,-0.033,-0.008,102.0,102.0,101.0,13.4,1505.2,326.2,-0.7,1.8,2470.681,13.28,0.048,133.3
2022-01-17T04:19:03,42.805,6.029,0.022,-0.026,-0.022,102.0,101.0,101.0,13.4,1505.2,325.6,-0.8,1.8,2470.683,13.28,0.034,139.8
2022-01-17T04:22:03,42.805,6.029,0.014,-0.016,-0.02,103.0,102.0,101.0,13.4,1505.2,327.8,-0.8,1.8,2470.695,13.28,0.021,138.8
2022-01-17T04:25:03,42.805,6.029,0.056,-0.032,0.003,102.0,102.0,102.0,13.3,1505.2,326.5,-0.7,1.9,2470.693,13.28,0.064,119.7
2022-01-17T04:28:03,42.805,6.029,0.024,-0.017,0.002,101.0,102.0,100.0,13.4,1505.2,323.7,-0.8,1.8,2470.742,13.28,0.029,125.3
2022-01-17T04:31:03,42.805,6.029,0.05,-0.044,-0.021,100.0,101.0,101.0,13.4,1505.2,326.1,-0.7,1.8,2470.706,13.28,0.066,131.3
2022-01-17T04:34:03,42.805,6.029,0.036,-0.029,0.005,101.0,102.0,101.0,13.3,1505.2,331.8,-0.7,1.8,2470.703,13.28,0.046,128.9
2022-01-17T04:37:03,42.805,6.029,0.046,-0.039,-0.042,102.0,102.0,100.0,13.4,1505.2,329.2,-0.8,1.8,2470.704,13.28,0.06,130.3
2022-01-17T04:40:03,42.805,6.029,0.044,-0.021,0.014,101.0,101.0,101.0,13.4,1505.2,325.9,-0.7,1.9,2470.712,13.28,0.048,115.5
2022-01-17T04:43:03,42.805,6.029,0.047,-0.021,-0.036,102.0,101.0,101.0,13.4,1505.2,324.9,-0.8,1.8,2470.685,13.28,0.051,114.1
2022-01-17T04:46:03,42.805,6.029,0.038,-0.04,-0.027,101.0,100.0,101.0,13.4,1505.2,326.3,-0.8,1.8,2470.717,13.28,0.055,136.5
2022-01-17T04:49:03,42.805,6.029,0.023,-0.026,-0.016,102.0,101.0,101.0,13.4,1505.2,326.7,-0.8,1.9,2470.731,13.28,0.034,138.5
2022-01-17T04:52:03,42.805,6.029,0.017,-0.018,-0.001,103.0,101.0,100.0,13.3,1505.2,325.9,-0.7,1.8,2470.697,13.28,0.024,136.6
2022-01-17T04:55:03,42.805,6.029,0.051,-0.032,-0.016,103.0,101.0,101.0,13.4,1505.2,326.5,-0.7,1.8,2470.731,13.28,0.06,122.1
2022-01-17T04:58:03,42.805,6.029,0.046,-0.006,0.016,102.0,101.0,101.0,13.4,1505.2,327.9,-0.7,1.9,2470.74,13.28,0.046,97.4
2022-01-17T05:04:03,42.805,6.029,0.038,-0.018,0.008,101.0,101.0,101.0,13.3,1505.2,325.9,-0.7,1.8,2470.769,13.28,0.042,115.3
2022-01-17T05:07:03,42.805,6.029,0.026,-0.031,-0.051,102.0,101.0,101.0,13.3,1505.2,329.3,-0.7,1.9,2470.77,13.28,0.04,140.0
2022-01-17T05:10:03,42.805,6.029,0.022,-0.052,-0.045,102.0,100.0,102.0,13.4,1505.2,329.7,-0.8,1.8,2470.748,13.28,0.056,157.1
2022-01-17T05:13:03,42.805,6.029,0.05,-0.043,-0.026,102.0,100.0,101.0,13.4,1505.2,329.0,-0.8,1.8,2470.788,13.28,0.065,130.7
2022-01-17T05:16:03,42.805,6.029,0.015,-0.006,0.018,101.0,102.0,101.0,13.3,1505.2,324.5,-0.8,1.8,2470.795,13.28,0.016,111.8
2022-01-17T05:19:03,42.805,6.029,0.041,-0.012,-0.017,102.0,103.0,101.0,13.3,1505.2,328.3,-0.7,1.8,2470.754,13.28,0.042,106.3
2022-01-17T05:22:03,42.805,6.029,0.038,-0.038,-0.036,101.0,102.0,101.0,13.4,1505.2,327.1,-0.8,1.8,2470.788,13.28,0.053,135.0
2022-01-17T05:25:03,42.805,6.029,0.052,-0.025,-0.001,102.0,102.0,100.0,13.4,1505.2,330.1,-0.8,1.8,2470.792,13.28,0.057,115.7
2022-01-17T05:28:03,42.805,6.029,0.017,-0.024,-0.02,101.0,102.0,100.0,13.4,1505.2,324.0,-0.7,1.9,2470.794,13.28,0.029,144.7
2022-01-17T05:31:03,42.805,6.029,0.038,-0.018,-0.045,101.0,102.0,101.0,13.4,1505.2,323.9,-0.7,1.8,2470.745,13.28,0.042,115.3
2022-01-17T05:34:03,42.805,6.029,0.051,-0.036,0.005,102.0,102.0,101.0,13.3,1505.2,325.8,-0.7,1.8,2470.745,13.28,0.062,125.2
2022-01-17T05:37:03,42.805,6.029,0.04,-0.018,-0.007,100.0,101.0,102.0,13.4,1505.2,327.1,-0.8,1.8,2470.753,13.28,0.043,114.2
2022-01-17T05:40:03,42.805,6.029,0.021,-0.019,-0.004,101.0,101.0,101.0,13.3,1505.2,329.8,-0.7,1.8,2470.781,13.28,0.028,132.1
2022-01-17T05:43:03,42.805,6.029,0.05,-0.024,-0.011,101.0,101.0,101.0,13.4,1505.2,323.8,-0.8,1.9,2470.753,13.28,0.055,115.6
2022-01-17T05:46:03,42.805,6.029,0.058,-0.021,-0.004,102.0,101.0,100.0,13.4,1505.2,326.1,-0.8,1.8,2470.786,13.28,0.061,109.9
2022-01-17T05:49:03,42.805,6.029,0.052,-0.033,-0.015,102.0,102.0,100.0,13.3,1505.2,332.0,-0.8,1.8,2470.726,13.28,0.061,122.4
2022-01-17T05:52:03,42.805,6.029,0.03,-0.017,-0.035,101.0,100.0,101.0,13.4,1505.2,324.1,-0.8,1.8,2470.749,13.28,0.034,119.5
2022-01-17T05:55:03,42.805,6.029,0.015,-0.023,-0.005,102.0,102.0,101.0,13.4,1505.2,328.8,-0.8,1.8,2470.743,13.28,0.027,146.9
2022-01-17T05:58:03,42.805,6.029,0.051,-0.009,-0.017,102.0,101.0,100.0,13.4,1505.2,326.9,-0.7,1.8,2470.786,13.28,0.051,100.0
2022-01-17T06:04:03,42.805,6.029,0.046,-0.023,0.003,102.0,101.0,101.0,13.4,1505.2,328.1,-0.8,1.9,2470.831,13.28,0.051,116.6
2022-01-17T06:07:03,42.805,6.029,0.027,-0.041,-0.015,101.0,101.0,101.0,13.3,1505.2,327.0,-0.8,1.8,2470.775,13.28,0.049,146.6
2022-01-17T06:10:03,42.805,6.029,0.039,-0.035,-0.027,101.0,102.0,101.0,13.4,1505.2,328.4,-0.7,1.8,2470.772,13.28,0.052,131.9
2022-01-17T06:13:03,42.805,6.029,0.037,-0.006,0.001,102.0,102.0,102.0,13.4,1505.2,326.4,-0.8,1.8,2470.779,13.28,0.037,99.2
2022-01-17T06:16:03,42.805,6.029,0.058,-0.01,0.015,102.0,102.0,100.0,13.4,1505.2,328.5,-0.7,1.8,2470.768,13.28,0.058,99.8
2022-01-17T06:19:03,42.805,6.029,0.028,-0.026,-0.027,102.0,102.0,100.0,13.3,1505.2,331.2,-0.7,1.9,2470.821,13.28,0.038,132.9
2022-01-17T06:22:03,42.805,6.029,0.055,-0.053,-0.037,101.0,103.0,99.0,13.4,1505.2,325.2,-0.8,1.8,2470.79,13.28,0.076,133.9
2022-01-17T06:25:03,42.805,6.029,0.039,-0.017,-0.031,102.0,102.0,101.0,13.4,1505.2,325.9,-0.8,1.8,2470.821,13.28,0.042,113.5
2022-01-17T06:28:03,42.805,6.029,0.03,-0.035,-0.029,102.0,100.0,100.0,13.4,1505.2,328.8,-0.7,1.8,2470.798,13.28,0.046,139.4
2022-01-17T06:31:03,42.805,6.029,0.033,-0.008,0.016,102.0,101.0,101.0,13.4,1505.2,327.1,-0.8,1.8,2470.796,13.28,0.033,103.6
2022-01-17T06:34:03,42.805,6.029,0.058,-0.042,-0.016,102.0,102.0,102.0,13.4,1505.2,328.2,-0.7,1.8,2470.794,13.28,0.071,125.9
2022-01-17T06:37:03,42.805,6.029,0.042,-0.014,-0.007,102.0,101.0,101.0,13.4,1505.2,323.9,-0.8,1.8,2470.787,13.28,0.044,108.4
2022-01-17T06:40:03,42.805,6.029,0.058,-0.03,0.009,103.0,101.0,104.0,13.4,1505.2,328.9,-0.8,1.8,2470.8,13.28,0.065,117.4
2022-01-17T06:43:03,42.805,6.029,0.033,-0.024,0.009,104.0,102.0,100.0,13.4,1505.2,326.1,-0.8,1.8,2470.777,13.28,0.04,126.0
2022-01-17T06:46:03,42.805,6.029,0.037,-0.017,-0.007,102.0,102.0,101.0,13.4,1505.2,329.4,-0.7,1.8,2470.766,13.28,0.04,114.7
2022-01-17T06:49:03,42.805,6.029,0.059,-0.015,0.007,101.0,102.0,101.0,13.4,1505.2,326.2,-0.8,1.9,2470.786,13.28,0.06,104.3
2022-01-17T06:52:03,42.805,6.029,0.038,-0.022,-0.005,102.0,101.0,101.0,13.3,1505.2,326.8,-0.8,1.8,2470.806,13.28,0.043,120.1
2022-01-17T06:55:03,42.805,6.029,0.05,-0.026,-0.021,102.0,101.0,101.0,13.4,1505.2,326.3,-0.8,1.8,2470.768,13.28,0.056,117.5
2022-01-17T06:58:03,42.805,6.029,0.043,-0.006,-0.002,102.0,102.0,101.0,13.4,1505.2,325.5,-0.8,1.8,2470.819,13.28,0.043,97.9
2022-01-17T07:04:03,42.805,6.029,0.041,-0.011,-0.01,100.0,102.0,101.0,13.4,1505.2,323.7,-0.8,1.8,2470.845,13.28,0.042,105.0
2022-01-17T07:07:03,42.805,6.029,0.029,-0.03,-0.019,101.0,102.0,101.0,13.4,1505.2,323.6,-0.8,1.8,2470.814,13.28,0.041,136.0
2022-01-17T07:10:03,42.805,6.029,0.072,-0.026,-0.009,101.0,102.0,100.0,13.4,1505.2,328.6,-0.7,1.8,2470.836,13.28,0.076,109.9
2022-01-17T07:13:03,42.805,6.029,0.031,-0.024,-0.029,102.0,103.0,101.0,13.4,1505.2,330.4,-0.7,1.8,2470.839,13.28,0.039,127.7
2022-01-17T07:16:03,42.805,6.029,0.053,-0.028,0.011,102.0,101.0,101.0,13.4,1505.2,327.4,-0.7,1.9,2470.813,13.28,0.059,117.9
2022-01-17T07:19:03,42.805,6.029,0.052,-0.052,-0.022,101.0,102.0,102.0,13.3,1505.2,331.3,-0.7,1.8,2470.827,13.28,0.073,135.0
2022-01-17T07:22:03,42.805,6.029,0.041,-0.028,-0.028,102.0,102.0,101.0,13.4,1505.2,328.4,-0.7,1.8,2470.795,13.28,0.049,124.3
2022-01-17T07:25:03,42.805,6.029,0.042,-0.026,-0.027,103.0,102.0,101.0,13.4,1505.2,327.0,-0.7,1.8,2470.835,13.28,0.049,121.8
2022-01-17T07:28:03,42.805,6.029,0.043,-0.033,-0.023,103.0,102.0,100.0,13.4,1505.2,329.7,-0.7,1.8,2470.831,13.28,0.054,127.5
2022-01-17T07:31:03,42.805,6.029,0.033,-0.031,-0.023,102.0,102.0,102.0,13.4,1505.2,330.7,-0.7,1.8,2470.812,13.28,0.045,133.2
2022-01-17T07:34:03,42.805,6.029,0.061,-0.032,-0.025,102.0,101.0,102.0,13.3,1505.2,330.8,-0.8,1.8,2470.82,13.28,0.068,117.7
2022-01-17T07:37:03,42.805,6.029,0.041,-0.028,0.003,102.0,102.0,101.0,13.4,1505.2,331.6,-0.7,1.8,2470.854,13.28,0.049,124.3
2022-01-17T07:40:03,42.805,6.029,0.035,-0.045,-0.03,103.0,102.0,100.0,13.4,1505.2,326.5,-0.8,1.8,2470.834,13.28,0.057,142.1
2022-01-17T07:43:03,42.805,6.029,0.055,-0.033,-0.03,102.0,102.0,101.0,13.4,1505.2,326.0,-0.8,1.8,2470.858,13.28,0.064,121.0
2022-01-17T07:46:03,42.805,6.029,0.028,0.0,0.014,102.0,101.0,101.0,13.4,1505.2,326.3,-0.8,1.8,2470.807,13.28,0.028,90.0
2022-01-17T07:49:03,42.805,6.029,0.015,-0.031,-0.043,101.0,103.0,102.0,13.3,1505.2,329.1,-0.7,1.8,2470.853,13.28,0.034,154.2
2022-01-17T07:52:03,42.805,6.029,0.046,-0.029,-0.007,103.0,101.0,101.0,13.4,1505.2,328.6,-0.8,1.8,2470.829,13.28,0.054,122.2
2022-01-17T07:55:03,42.805,6.029,0.026,-0.009,0.005,104.0,102.0,101.0,13.4,1505.2,327.0,-0.8,1.9,2470.814,13.28,0.027,109.1
2022-01-17T07:58:03,42.805,6.029,0.039,-0.002,0.005,103.0,103.0,102.0,13.4,1505.2,327.0,-0.8,1.8,2470.812,13.28,0.039,92.9
2022-01-17T08:04:03,42.805,6.029,0.031,-0.014,-0.025,103.0,102.0,102.0,13.3,1505.2,327.6,-0.7,1.8,2470.868,13.28,0.034,114.3
2022-01-17T08:07:03,42.805,6.029,0.052,-0.019,-0.009,102.0,103.0,101.0,13.3,1505.2,329.9,-0.8,1.9,2470.862,13.28,0.055,110.1
2022-01-17T08:10:03,42.805,6.029,0.043,-0.015,0.009,103.0,103.0,102.0,13.4,1505.2,326.9,-0.7,1.8,2470.843,13.28,0.045,109.2
2022-01-17T08:13:03,42.805,6.029,0.039,-0.034,0.024,103.0,103.0,102.0,13.3,1505.2,331.1,-0.7,1.8,2470.841,13.28,0.051,131.1
2022-01-17T08:16:03,42.805,6.029,0.023,-0.02,-0.033,103.0,102.0,102.0,13.4,1505.2,329.2,-0.8,1.8,2470.859,13.28,0.03,131.0
2022-01-17T08:19:03,42.805,6.029,0.038,-0.038,-0.018,103.0,104.0,101.0,13.4,1505.2,325.0,-0.7,1.8,2470.812,13.28,0.053,135.0
2022-01-17T08:22:03,42.805,6.029,0.058,-0.019,0.023,103.0,103.0,102.0,13.4,1505.2,328.5,-0.8,1.8,2470.86,13.28,0.061,108.1
2022-01-17T08:25:03,42.805,6.029,0.043,-0.021,-0.011,103.0,103.0,101.0,13.3,1505.2,329.9,-0.8,1.8,2470.834,13.28,0.047,116.0
2022-01-17T08:28:03,42.805,6.029,0.042,-0.019,-0.017,104.0,103.0,101.0,13.4,1505.2,328.8,-0.8,1.8,2470.833,13.28,0.046,114.3
2022-01-17T08:31:03,42.805,6.029,0.034,-0.029,-0.035,102.0,102.0,101.0,13.4,1505.2,324.7,-0.8,1.9,2470.799,13.28,0.044,130.5
2022-01-17T08:34:03,42.805,6.029,0.027,-0.022,0.005,102.0,103.0,101.0,13.4,1505.2,325.8,-0.7,1.8,2470.848,13.28,0.034,129.2
2022-01-17T08:37:03,42.805,6.029,0.053,-0.024,0.013,102.0,103.0,101.0,13.4,1505.2,331.9,-0.7,1.8,2470.838,13.28,0.058,114.4
2022-01-17T08:40:03,42.805,6.029,0.04,-0.01,0.007,102.0,103.0,101.0,13.4,1505.2,325.3,-0.7,1.8,2470.829,13.28,0.041,104.0
2022-01-17T08:43:03,42.805,6.029,0.06,-0.032,-0.002,102.0,102.0,101.0,13.4,1505.2,326.2,-0.8,1.8,2470.809,13.28,0.067,118.1
2022-01-17T08:46:03,42.805,6.029,0.015,-0.022,-0.002,102.0,103.0,102.0,13.3,1505.2,330.4,-0.8,1.8,2470.817,13.28,0.026,145.7
2022-01-17T08:49:03,42.805,6.029,0.054,-0.04,-0.007,102.0,101.0,101.0,13.3,1505.2,326.9,-0.8,1.8,2470.772,13.28,0.067,126.5
2022-01-17T08:52:03,42.805,6.029,0.019,-0.021,-0.012,102.0,102.0,101.0,13.3,1505.2,324.7,-0.7,1.8,2470.801,13.28,0.028,137.9
2022-01-17T08:55:03,42.805,6.029,0.047,-0.038,-0.031,101.0,102.0,100.0,13.3,1505.2,327.7,-0.7,1.8,2470.838,13.28,0.06,129.0
2022-01-17T08:58:03,42.805,6.029,0.04,-0.015,0.021,101.0,103.0,100.0,13.3,1505.2,326.5,-0.8,1.8,2470.845,13.28,0.042,110.6
2022-01-17T09:04:03,42.805,6.029,0.045,-0.026,0.009,102.0,102.0,101.0,13.4,1505.2,327.1,-0.8,1.8,2470.876,13.28,0.051,120.0
2022-01-17T09:07:03,42.805,6.029,0.054,-0.034,-0.004,102.0,102.0,101.0,13.3,1505.2,328.6,-0.8,1.8,2470.854,13.28,0.063,122.2
2022-01-17T09:10:03,42.805,6.029,0.032,-0.047,-0.029,102.0,102.0,100.0,13.4,1505.2,327.3,-0.7,1.8,2470.838,13.28,0.056,145.8
2022-01-17T09:13:03,42.805,6.029,0.015,-0.013,-0.008,101.0,102.0,101.0,13.4,1505.2,329.6,-0.8,1.8,2470.843,13.28,0.019,130.9
2022-01-17T09:16:03,42.805,6.029,0.035,-0.003,0.012,101.0,102.0,101.0,13.4,1505.2,331.6,-0.8,1.8,2470.819,13.28,0.035,94.9
2022-01-17T09:19:03,42.805,6.029,0.047,-0.037,-0.03,102.0,102.0,101.0,13.4,1505.2,326.2,-0.7,1.8,2470.855,13.28,0.059,128.2
2022-01-17T09:22:03,42.805,6.029,0.009,-0.009,-0.002,103.0,104.0,101.0,13.3,1505.2,324.2,-0.8,1.8,2470.794,13.28,0.012,135.0
2022-01-17T09:25:03,42.805,6.029,0.044,-0.017,0.003,102.0,102.0,101.0,13.4,1505.2,326.6,-0.8,1.8,2470.813,13.28,0.047,111.1
2022-01-17T09:28:03,42.805,6.029,0.049,-0.012,0.023,102.0,102.0,101.0,13.3,1505.2,330.6,-0.8,1.8,2470.811,13.28,0.05,103.8
2022-01-17T09:31:03,42.805,6.029,0.05,-0.03,-0.013,102.0,102.0,101.0,13.4,1505.2,328.9,-0.8,1.8,2470.787,13.28,0.058,121.0
2022-01-17T09:34:03,42.805,6.029,0.045,-0.034,-0.036,103.0,101.0,101.0,13.3,1505.2,324.7,-0.7,1.8,2470.853,13.28,0.056,127.1
2022-01-17T09:37:03,42.805,6.029,0.044,-0.025,-0.022,101.0,101.0,101.0,13.3,1505.2,329.7,-0.8,1.8,2470.813,13.28,0.05,119.6
2022-01-17T09:40:03,42.805,6.029,0.041,-0.012,0.001,102.0,101.0,101.0,13.3,1505.2,329.6,-0.7,1.8,2470.809,13.28,0.042,106.3
2022-01-17T09:43:03,42.805,6.029,0.028,-0.016,-0.029,102.0,101.0,101.0,13.4,1505.2,327.2,-0.7,1.8,2470.827,13.28,0.032,119.7
2022-01-17T09:46:03,42.805,6.029,0.039,-0.038,0.003,102.0,102.0,100.0,13.4,1505.2,327.2,-0.7,1.8,2470.79,13.28,0.054,134.3
2022-01-17T09:49:03,42.805,6.029,0.025,0.008,-0.01,101.0,101.0,101.0,13.3,1505.2,326.3,-0.8,1.8,2470.818,13.28,0.026,72.3
2022-01-17T09:52:03,42.805,6.029,0.042,0.0,0.029,102.0,101.0,101.0,13.3,1505.2,328.0,-0.7,1.8,2470.807,13.28,0.042,90.0
2022-01-17T09:55:03,42.805,6.029,0.041,-0.001,0.001,102.0,102.0,101.0,13.3,1505.2,326.5,-0.7,1.8,2470.83,13.28,0.041,91.4